FBD5011 UNKL-UWLL

Flight info

Callsign FBD5011
Flight time 2h 7m
Altitude 52000
Route APRUS2F APRUS DCT ADONI DCT NH DCT KUMEP DCT ORTIM DCT GUBOM DCT AGUTO AGUTO1F
Aircraft CONC/H-V/N

Departure

Time 2026-04-24 14:19
Airport Krasnoyarsk International Airport (UNKL)

Arrival

Time 2026-04-24 16:26
Airport Ulyanovsk Baratayevka Airport (UWLL)
Time Latitude Longitude Altitude Speed Heading
2026-04-24 13:49 56.17981 92.47869 957 ft 0 kts 112°
2026-04-24 14:08 56.17981 92.47870 957 ft 0 kts 112°
2026-04-24 14:08 56.17979 92.47877 957 ft 3 kts 111°
2026-04-24 14:08 56.17953 92.47924 955 ft 6 kts 149°
2026-04-24 14:09 56.17921 92.47923 956 ft 4 kts 190°
2026-04-24 14:09 56.17883 92.47919 955 ft 6 kts 177°
2026-04-24 14:09 56.17847 92.47959 955 ft 6 kts 142°
2026-04-24 14:09 56.17830 92.48020 955 ft 5 kts 112°
2026-04-24 14:10 56.17813 92.48091 954 ft 7 kts 112°
2026-04-24 14:10 56.17792 92.48176 957 ft 8 kts 114°
2026-04-24 14:10 56.17766 92.48284 955 ft 11 kts 114°
2026-04-24 14:10 56.17734 92.48417 954 ft 12 kts 112°
2026-04-24 14:11 56.17701 92.48556 956 ft 12 kts 114°
2026-04-24 14:11 56.17665 92.48704 955 ft 13 kts 113°
2026-04-24 14:11 56.17590 92.49018 956 ft 14 kts 112°
2026-04-24 14:12 56.17554 92.49175 955 ft 14 kts 112°
2026-04-24 14:12 56.17519 92.49320 954 ft 12 kts 116°
2026-04-24 14:12 56.17486 92.49459 954 ft 12 kts 111°
2026-04-24 14:12 56.17447 92.49618 955 ft 16 kts 113°
2026-04-24 14:13 56.17399 92.49819 956 ft 19 kts 113°
2026-04-24 14:13 56.17346 92.50041 954 ft 19 kts 114°
2026-04-24 14:13 56.17291 92.50267 956 ft 20 kts 112°
2026-04-24 14:13 56.17238 92.50492 956 ft 20 kts 113°
2026-04-24 14:14 56.17185 92.50717 955 ft 20 kts 113°
2026-04-24 14:14 56.17130 92.50943 956 ft 20 kts 114°
2026-04-24 14:14 56.17023 92.51409 956 ft 19 kts 114°
2026-04-24 14:15 56.16966 92.51628 955 ft 19 kts 114°
2026-04-24 14:15 56.16912 92.51853 954 ft 19 kts 112°
2026-04-24 14:15 56.16835 92.51970 956 ft 12 kts 156°
2026-04-24 14:15 56.16817 92.51983 954 ft 0 kts 157°
2026-04-24 14:17 56.16813 92.51986 955 ft 3 kts 157°
2026-04-24 14:17 56.16771 92.52017 956 ft 10 kts 158°
2026-04-24 14:17 56.16673 92.51953 956 ft 10 kts 274°
2026-04-24 14:18 56.16681 92.51897 955 ft 0 kts 292°
2026-04-24 14:18 56.16684 92.51886 957 ft 10 kts 292°
2026-04-24 14:18 56.16807 92.51358 955 ft 83 kts 293°
2026-04-24 14:18 56.17143 92.49953 954 ft 164 kts 294°
2026-04-24 14:19 56.17684 92.47644 959 ft 226 kts 292°
2026-04-24 14:19 56.18356 92.44784 1481 ft 262 kts 291°
2026-04-24 14:19 56.19120 92.41866 2391 ft 248 kts 291°
2026-04-24 14:19 56.19667 92.39245 2888 ft 205 kts 288°
2026-04-24 14:20 56.20104 92.36899 3401 ft 199 kts 288°
2026-04-24 14:20 56.20268 92.34421 4110 ft 213 kts 254°
2026-04-24 14:20 56.19710 92.31851 5036 ft 232 kts 250°
2026-04-24 14:20 56.19029 92.29005 5705 ft 268 kts 250°
2026-04-24 14:21 56.18253 92.25782 5909 ft 279 kts 250°
2026-04-24 14:21 56.17573 92.22699 5943 ft 258 kts 266°
2026-04-24 14:21 56.17276 92.19676 6450 ft 243 kts 250°
2026-04-24 14:21 56.16480 92.16736 6419 ft 283 kts 245°
2026-04-24 14:22 56.15659 92.13498 7087 ft 286 kts 254°
2026-04-24 14:22 56.14989 92.10129 7916 ft 287 kts 255°
2026-04-24 14:22 56.13746 92.03238 9531 ft 294 kts 252°
2026-04-24 14:23 56.13090 91.99772 10295 ft 293 kts 252°
2026-04-24 14:23 56.12434 91.96309 11053 ft 293 kts 252°
2026-04-24 14:23 56.11783 91.92850 11821 ft 293 kts 252°
2026-04-24 14:23 56.11132 91.89392 12613 ft 291 kts 249°
2026-04-24 14:24 56.10472 91.85932 13426 ft 298 kts 253°
2026-04-24 14:24 56.09779 91.82305 14263 ft 317 kts 256°
2026-04-24 14:24 56.09073 91.78433 15075 ft 336 kts 255°
2026-04-24 14:24 56.08304 91.74353 15900 ft 356 kts 253°
2026-04-24 14:25 56.07464 91.70058 16709 ft 375 kts 252°
2026-04-24 14:25 56.06579 91.65543 17519 ft 394 kts 253°
2026-04-24 14:25 56.05661 91.60776 18373 ft 413 kts 253°
2026-04-24 14:25 56.04716 91.55826 18762 ft 441 kts 253°
2026-04-24 14:26 56.03688 91.50492 18890 ft 459 kts 252°
2026-04-24 14:26 56.02652 91.45282 18933 ft 430 kts 251°
2026-04-24 14:26 56.01689 91.40353 18950 ft 409 kts 252°
2026-04-24 14:26 56.00767 91.35553 18986 ft 409 kts 252°
2026-04-24 14:27 55.99835 91.30731 19007 ft 411 kts 252°
2026-04-24 14:27 55.98911 91.25885 19026 ft 412 kts 257°
2026-04-24 14:27 55.98645 91.20847 19018 ft 408 kts 278°
2026-04-24 14:27 55.99349 91.16000 19497 ft 398 kts 287°
2026-04-24 14:28 56.00243 91.11269 20306 ft 408 kts 286°
2026-04-24 14:28 56.01088 91.06346 21139 ft 422 kts 285°
2026-04-24 14:28 56.01897 91.01209 21971 ft 436 kts 284°
2026-04-24 14:28 56.02704 90.95966 22809 ft 448 kts 284°
2026-04-24 14:29 56.03543 90.90522 23668 ft 460 kts 284°
2026-04-24 14:29 56.04404 90.84953 24442 ft 469 kts 284°
2026-04-24 14:29 56.05285 90.79260 25181 ft 478 kts 284°
2026-04-24 14:29 56.06176 90.73480 25941 ft 486 kts 284°
2026-04-24 14:30 56.06782 90.69529 26464 ft 489 kts 284°
2026-04-24 14:30 56.07975 90.61740 27503 ft 489 kts 284°
2026-04-24 14:30 56.08861 90.55861 28284 ft 491 kts 283°
2026-04-24 14:30 56.09761 90.49906 29125 ft 499 kts 284°
2026-04-24 14:31 56.10694 90.43844 30018 ft 510 kts 284°
2026-04-24 14:31 56.11633 90.37657 30789 ft 511 kts 282°
2026-04-24 14:31 56.12530 90.31592 31502 ft 496 kts 282°
2026-04-24 14:31 56.13412 90.25665 32256 ft 488 kts 282°
2026-04-24 14:32 56.14289 90.19817 33055 ft 484 kts 282°
2026-04-24 14:32 56.15147 90.14049 33909 ft 488 kts 282°
2026-04-24 14:32 56.16024 90.08122 34631 ft 495 kts 282°
2026-04-24 14:32 56.16914 90.02109 35222 ft 504 kts 282°
2026-04-24 14:33 56.17822 89.95944 35251 ft 516 kts 282°
2026-04-24 14:33 56.18750 89.89655 35361 ft 529 kts 282°
2026-04-24 14:33 56.19701 89.83154 35509 ft 547 kts 282°
2026-04-24 14:33 56.20677 89.76445 35650 ft 564 kts 284°
2026-04-24 14:34 56.21687 89.69538 35816 ft 579 kts 284°
2026-04-24 14:34 56.22714 89.62429 35946 ft 595 kts 284°
2026-04-24 14:34 56.23748 89.55130 36091 ft 610 kts 284°
2026-04-24 14:34 56.24811 89.47645 36419 ft 619 kts 284°
2026-04-24 14:35 56.25879 89.40104 37223 ft 623 kts 284°
2026-04-24 14:35 56.26949 89.32529 38037 ft 625 kts 284°
2026-04-24 14:35 56.28015 89.24944 38838 ft 625 kts 284°
2026-04-24 14:35 56.29060 89.17471 39491 ft 624 kts 284°
2026-04-24 14:36 56.30113 89.09905 40166 ft 622 kts 284°
2026-04-24 14:36 56.31158 89.02358 40887 ft 619 kts 284°
2026-04-24 14:36 56.32194 88.94822 41454 ft 621 kts 283°
2026-04-24 14:37 56.34669 88.79713 41649 ft 635 kts 287°
2026-04-24 14:37 56.36019 88.72073 41763 ft 642 kts 287°
2026-04-24 14:37 56.37385 88.64352 41889 ft 649 kts 287°
2026-04-24 14:37 56.38759 88.56543 42010 ft 656 kts 287°
2026-04-24 14:38 56.40137 88.48664 42137 ft 662 kts 287°
2026-04-24 14:38 56.41526 88.40687 42261 ft 668 kts 287°
2026-04-24 14:38 56.42920 88.32635 42385 ft 674 kts 287°
2026-04-24 14:38 56.44323 88.24497 42511 ft 680 kts 287°
2026-04-24 14:39 56.45730 88.16303 42628 ft 686 kts 287°
2026-04-24 14:39 56.47125 88.08137 42747 ft 691 kts 287°
2026-04-24 14:39 56.48543 87.99800 42873 ft 696 kts 287°
2026-04-24 14:39 56.49962 87.91414 43391 ft 694 kts 287°
2026-04-24 14:40 56.51368 87.83070 44212 ft 689 kts 287°
2026-04-24 14:40 56.52753 87.74806 45047 ft 683 kts 286°
2026-04-24 14:40 56.54123 87.66596 45829 ft 676 kts 286°
2026-04-24 14:40 56.55472 87.58475 46630 ft 669 kts 286°
2026-04-24 14:41 56.56801 87.50437 47431 ft 661 kts 286°
2026-04-24 14:41 56.58107 87.42501 48234 ft 652 kts 286°
2026-04-24 14:41 56.59389 87.34675 49042 ft 643 kts 286°
2026-04-24 14:41 56.60649 87.26955 49843 ft 632 kts 286°
2026-04-24 14:42 56.61467 87.21917 50341 ft 626 kts 286°
2026-04-24 14:42 56.63105 87.11791 50752 ft 622 kts 286°
2026-04-24 14:42 56.64319 87.04251 50867 ft 622 kts 286°
2026-04-24 14:43 56.66732 86.89158 50934 ft 622 kts 285°
2026-04-24 14:43 56.69132 86.74016 50943 ft 623 kts 285°
2026-04-24 14:43 56.70322 86.66460 50265 ft 635 kts 285°
2026-04-24 14:44 56.71547 86.58642 49679 ft 644 kts 285°
2026-04-24 14:44 56.72769 86.50804 49889 ft 643 kts 285°
2026-04-24 14:44 56.73989 86.42947 49705 ft 648 kts 285°
2026-04-24 14:44 56.75230 86.34912 48864 ft 663 kts 285°
2026-04-24 14:45 56.76490 86.26719 48078 ft 678 kts 285°
2026-04-24 14:45 56.77772 86.18341 47282 ft 693 kts 285°
2026-04-24 14:45 56.79075 86.09780 46522 ft 708 kts 285°
2026-04-24 14:45 56.80404 86.01006 45746 ft 723 kts 285°
2026-04-24 14:46 56.81737 85.92154 44960 ft 738 kts 285°
2026-04-24 14:46 56.83105 85.83021 44134 ft 754 kts 284°
2026-04-24 14:46 56.84496 85.73676 43305 ft 769 kts 284°
2026-04-24 14:46 56.85910 85.64131 42551 ft 785 kts 284°
2026-04-24 14:47 56.86860 85.57682 42059 ft 796 kts 284°
2026-04-24 14:47 56.88803 85.44407 41324 ft 820 kts 284°
2026-04-24 14:47 56.90284 85.34219 41122 ft 835 kts 284°
2026-04-24 14:47 56.91783 85.23842 41022 ft 852 kts 284°
2026-04-24 14:48 56.93287 85.13359 41131 ft 865 kts 284°
2026-04-24 14:48 56.94811 85.02666 42131 ft 870 kts 284°
2026-04-24 14:48 56.96340 84.91859 42635 ft 882 kts 284°
2026-04-24 14:48 56.97883 84.80877 42931 ft 897 kts 284°
2026-04-24 14:49 56.99445 84.69691 43443 ft 910 kts 284°
2026-04-24 14:49 57.01017 84.58336 43825 ft 925 kts 284°
2026-04-24 14:49 57.02604 84.46793 44233 ft 940 kts 284°
2026-04-24 14:49 57.04209 84.35038 44711 ft 954 kts 283°
2026-04-24 14:50 57.05822 84.23120 45187 ft 967 kts 283°
2026-04-24 14:50 57.07423 84.11205 45660 ft 980 kts 283°
2026-04-24 14:50 57.09056 83.98950 46089 ft 992 kts 283°
2026-04-24 14:50 57.10698 83.86519 46475 ft 1004 kts 283°
2026-04-24 14:51 57.12345 83.73954 46829 ft 1016 kts 283°
2026-04-24 14:51 57.14000 83.61213 47304 ft 1025 kts 283°
2026-04-24 14:51 57.15651 83.48396 48118 ft 1030 kts 283°
2026-04-24 14:51 57.17299 83.35483 48935 ft 1035 kts 283°
2026-04-24 14:52 57.18936 83.22541 49742 ft 1038 kts 283°
2026-04-24 14:52 57.20565 83.09549 50412 ft 1043 kts 282°
2026-04-24 14:52 57.22194 82.96431 50671 ft 1051 kts 282°
2026-04-24 14:52 57.23797 82.83407 50773 ft 1057 kts 282°
2026-04-24 14:53 57.25410 82.70174 50817 ft 1058 kts 282°
2026-04-24 14:53 57.28611 82.43540 50842 ft 1061 kts 282°
2026-04-24 14:54 57.31760 82.16818 50852 ft 1064 kts 282°
2026-04-24 14:54 57.34340 81.94528 50846 ft 1066 kts 282°
2026-04-24 14:55 57.37396 81.67633 50841 ft 1068 kts 281°
2026-04-24 14:55 57.40406 81.40579 50870 ft 1071 kts 281°
2026-04-24 14:56 57.43339 81.13667 50864 ft 1073 kts 281°
2026-04-24 14:56 57.46241 80.86448 50848 ft 1075 kts 281°
2026-04-24 14:57 57.49092 80.59122 50838 ft 1077 kts 280°
2026-04-24 14:57 57.51891 80.31685 50839 ft 1078 kts 280°
2026-04-24 14:58 57.54612 80.04377 50855 ft 1080 kts 280°
2026-04-24 14:58 57.57298 79.76800 50854 ft 1082 kts 279°
2026-04-24 14:59 57.59924 79.49162 50842 ft 1083 kts 279°
2026-04-24 14:59 57.62496 79.21430 50841 ft 1084 kts 279°
2026-04-24 15:00 57.65010 78.93619 50840 ft 1086 kts 279°
2026-04-24 15:00 57.67462 78.65779 50836 ft 1087 kts 279°
2026-04-24 15:01 57.69840 78.38068 50853 ft 1088 kts 278°
2026-04-24 15:01 57.72173 78.10116 50847 ft 1088 kts 278°
2026-04-24 15:02 57.74451 77.82053 50847 ft 1089 kts 278°
2026-04-24 15:02 57.76665 77.53971 50837 ft 1090 kts 278°
2026-04-24 15:03 57.78819 77.25823 50849 ft 1090 kts 278°
2026-04-24 15:03 57.80910 76.97673 50862 ft 1091 kts 277°
2026-04-24 15:04 57.82941 76.69430 50848 ft 1091 kts 277°
2026-04-24 15:04 57.84897 76.41352 50849 ft 1092 kts 277°
2026-04-24 15:05 57.86803 76.13049 50848 ft 1092 kts 277°
2026-04-24 15:05 57.88648 75.84693 50841 ft 1092 kts 276°
2026-04-24 15:06 57.90429 75.56312 50840 ft 1092 kts 276°
2026-04-24 15:06 57.92147 75.27900 50860 ft 1093 kts 276°
2026-04-24 15:07 57.93804 74.99431 50846 ft 1093 kts 276°
2026-04-24 15:07 57.95386 74.71140 50849 ft 1093 kts 275°
2026-04-24 15:08 57.96915 74.42628 50843 ft 1093 kts 275°
2026-04-24 15:08 57.98381 74.14071 50845 ft 1094 kts 275°
2026-04-24 15:09 57.99781 73.85535 50850 ft 1094 kts 275°
2026-04-24 15:09 58.01120 73.56930 50847 ft 1094 kts 274°
2026-04-24 15:10 58.02386 73.28341 50845 ft 1106 kts 274°
2026-04-24 15:10 58.03622 72.99232 51641 ft 1112 kts 274°
2026-04-24 15:10 58.04213 72.84645 52476 ft 1111 kts 274°
2026-04-24 15:11 58.04785 72.70115 53294 ft 1110 kts 274°
2026-04-24 15:11 58.05340 72.55581 54119 ft 1108 kts 273°
2026-04-24 15:11 58.05874 72.41059 54940 ft 1106 kts 273°
2026-04-24 15:11 58.06396 72.26559 55774 ft 1104 kts 273°
2026-04-24 15:12 58.06893 72.12276 56398 ft 1103 kts 273°
2026-04-24 15:12 58.07852 71.83228 56751 ft 1109 kts 272°
2026-04-24 15:12 58.08309 71.68649 56782 ft 1113 kts 272°
2026-04-24 15:13 58.09175 71.39348 56816 ft 1120 kts 272°
2026-04-24 15:13 58.09974 71.10091 56825 ft 1117 kts 272°
2026-04-24 15:14 58.10705 70.80774 56868 ft 1112 kts 272°
2026-04-24 15:14 58.11364 70.51753 56897 ft 1108 kts 271°
2026-04-24 15:15 58.11956 70.22682 56890 ft 1104 kts 271°
2026-04-24 15:15 58.12482 69.93697 56881 ft 1100 kts 271°
2026-04-24 15:16 58.12940 69.64799 56861 ft 1097 kts 271°
2026-04-24 15:16 58.13332 69.35967 56855 ft 1094 kts 270°
2026-04-24 15:17 58.13658 69.07152 56849 ft 1091 kts 270°
2026-04-24 15:17 58.13919 68.78437 56759 ft 1090 kts 270°
2026-04-24 15:18 58.14025 68.64095 56551 ft 1090 kts 270°
2026-04-24 15:18 58.14114 68.49896 55989 ft 1094 kts 270°
2026-04-24 15:18 58.14188 68.35463 55433 ft 1098 kts 270°
2026-04-24 15:18 58.14084 68.21008 54937 ft 1100 kts 264°
2026-04-24 15:19 58.13249 68.06577 54190 ft 1105 kts 263°
2026-04-24 15:19 58.12536 67.92071 53396 ft 1111 kts 264°
2026-04-24 15:19 58.11782 67.77504 52596 ft 1117 kts 264°
2026-04-24 15:19 58.11039 67.62782 51773 ft 1123 kts 264°
2026-04-24 15:20 58.10272 67.48033 51207 ft 1126 kts 264°
2026-04-24 15:20 58.09489 67.33310 51004 ft 1127 kts 264°
2026-04-24 15:20 58.07869 67.03878 50869 ft 1125 kts 263°
2026-04-24 15:21 58.06177 66.74492 50849 ft 1123 kts 263°
2026-04-24 15:21 58.04439 66.45425 50832 ft 1121 kts 263°
2026-04-24 15:22 58.02625 66.16224 50832 ft 1118 kts 263°
2026-04-24 15:23 57.99779 65.72511 50828 ft 1116 kts 262°
2026-04-24 15:23 57.96807 65.29210 50818 ft 1113 kts 262°
2026-04-24 15:25 57.91891 64.61980 50825 ft 1111 kts 261°
2026-04-24 15:26 57.85852 63.85538 50804 ft 1108 kts 261°
2026-04-24 15:27 57.78516 62.99928 50775 ft 1108 kts 259°
2026-04-24 15:28 57.73251 62.42428 50796 ft 1137 kts 259°
2026-04-24 15:29 57.70457 62.13108 50782 ft 1149 kts 259°
2026-04-24 15:31 57.60578 61.14933 50767 ft 1146 kts 258°
2026-04-24 15:33 57.47362 59.94684 50770 ft 1132 kts 257°
2026-04-24 15:34 57.38968 59.23638 50773 ft 1126 kts 257°
2026-04-24 15:35 57.30200 58.53117 50755 ft 1122 kts 256°
2026-04-24 15:36 57.26582 58.24998 50785 ft 1121 kts 256°
2026-04-24 15:36 57.21074 57.83197 50745 ft 1120 kts 255°
2026-04-24 15:37 57.17321 57.55364 50732 ft 1119 kts 255°
2026-04-24 15:37 57.13503 57.27569 50722 ft 1118 kts 255°
2026-04-24 15:38 57.09624 56.99831 50714 ft 1117 kts 255°
2026-04-24 15:38 57.05705 56.72302 50714 ft 1117 kts 255°
2026-04-24 15:39 57.00813 56.45310 50765 ft 1113 kts 246°
2026-04-24 15:39 56.95049 56.18926 50722 ft 1114 kts 248°
2026-04-24 15:40 56.89308 55.92586 50694 ft 1113 kts 248°
2026-04-24 15:40 56.83507 55.66329 50690 ft 1113 kts 247°
2026-04-24 15:41 56.77677 55.40285 50677 ft 1113 kts 247°
2026-04-24 15:41 56.71766 55.14203 50677 ft 1113 kts 247°
2026-04-24 15:42 56.65797 54.88195 50674 ft 1113 kts 246°
2026-04-24 15:42 56.60790 54.66616 50562 ft 1114 kts 246°
2026-04-24 15:43 56.57751 54.53715 49624 ft 1102 kts 245°
2026-04-24 15:43 56.54764 54.41053 48626 ft 1075 kts 244°
2026-04-24 15:43 56.51856 54.28746 47707 ft 1047 kts 244°
2026-04-24 15:43 56.49016 54.16809 46735 ft 1019 kts 244°
2026-04-24 15:44 56.46220 54.05200 45767 ft 993 kts 243°
2026-04-24 15:44 56.43517 53.93912 44754 ft 963 kts 235°
2026-04-24 15:44 56.40913 53.82941 43431 ft 936 kts 244°
2026-04-24 15:44 56.38351 53.72339 42662 ft 905 kts 243°
2026-04-24 15:45 56.35854 53.62207 41800 ft 883 kts 243°
2026-04-24 15:45 56.33394 53.52227 40976 ft 856 kts 243°
2026-04-24 15:45 56.31012 53.42571 40169 ft 828 kts 243°
2026-04-24 15:45 56.28706 53.33265 39400 ft 799 kts 243°
2026-04-24 15:46 56.26474 53.24275 38681 ft 773 kts 243°
2026-04-24 15:46 56.24293 53.15527 37938 ft 764 kts 243°
2026-04-24 15:46 56.22124 53.06877 37155 ft 772 kts 243°
2026-04-24 15:46 56.19885 52.97995 36326 ft 757 kts 241°
2026-04-24 15:47 56.17789 52.89717 35496 ft 719 kts 241°
2026-04-24 15:47 56.15782 52.81752 34730 ft 682 kts 242°
2026-04-24 15:47 56.13863 52.74186 33987 ft 647 kts 241°
2026-04-24 15:47 56.12037 52.67048 33166 ft 612 kts 242°
2026-04-24 15:48 56.10304 52.60309 32332 ft 580 kts 241°
2026-04-24 15:48 56.08686 52.53978 31540 ft 574 kts 242°
2026-04-24 15:48 56.06981 52.47329 30790 ft 600 kts 242°
2026-04-24 15:48 56.05198 52.40422 30056 ft 623 kts 242°
2026-04-24 15:49 56.03387 52.33456 29224 ft 598 kts 241°
2026-04-24 15:49 56.01706 52.27000 27079 ft 565 kts 243°
2026-04-24 15:49 56.00094 52.20795 27434 ft 537 kts 242°
2026-04-24 15:49 55.98555 52.14873 26603 ft 514 kts 240°
2026-04-24 15:50 55.97066 52.09214 25788 ft 495 kts 241°
2026-04-24 15:50 55.95630 52.03732 25003 ft 479 kts 240°
2026-04-24 15:50 55.94229 51.98430 24217 ft 466 kts 240°
2026-04-24 15:50 55.92859 51.93275 23466 ft 455 kts 240°
2026-04-24 15:51 55.91522 51.88220 22635 ft 445 kts 240°
2026-04-24 15:51 55.90208 51.83266 21769 ft 436 kts 239°
2026-04-24 15:51 55.88928 51.78432 20927 ft 428 kts 239°
2026-04-24 15:51 55.88438 51.76580 20630 ft 424 kts 239°
2026-04-24 15:52 55.87785 51.74079 20223 ft 420 kts 244°
2026-04-24 15:52 55.86579 51.69380 19449 ft 414 kts 244°
2026-04-24 15:52 55.85358 51.64769 18689 ft 408 kts 243°
2026-04-24 15:53 55.84121 51.60247 17956 ft 403 kts 242°
2026-04-24 15:53 55.82894 51.55788 17115 ft 399 kts 242°
2026-04-24 15:53 55.81671 51.51313 16286 ft 404 kts 243°
2026-04-24 15:53 55.80465 51.46825 15462 ft 399 kts 243°
2026-04-24 15:54 55.79282 51.42411 14678 ft 393 kts 243°
2026-04-24 15:54 55.78111 51.38057 13900 ft 387 kts 242°
2026-04-24 15:54 55.76951 51.33771 13114 ft 382 kts 242°
2026-04-24 15:54 55.75819 51.29605 12295 ft 377 kts 242°
2026-04-24 15:55 55.74623 51.25220 11504 ft 424 kts 242°
2026-04-24 15:55 55.73277 51.20281 10744 ft 447 kts 243°
2026-04-24 15:55 55.71941 51.15360 9975 ft 441 kts 242°
2026-04-24 15:55 55.70605 51.10476 9192 ft 437 kts 242°
2026-04-24 15:56 55.69282 51.05660 8368 ft 432 kts 242°
2026-04-24 15:56 55.67970 51.00891 7548 ft 428 kts 242°
2026-04-24 15:56 55.66673 50.96183 6755 ft 423 kts 242°
2026-04-24 15:56 55.65386 50.91520 5979 ft 419 kts 242°
2026-04-24 15:57 55.64114 50.86914 5454 ft 414 kts 242°
2026-04-24 15:57 55.62846 50.82341 5248 ft 414 kts 242°
2026-04-24 15:57 55.61577 50.77767 5169 ft 413 kts 241°
2026-04-24 15:57 55.60323 50.73260 5128 ft 414 kts 241°
2026-04-24 15:58 55.59074 50.68771 5110 ft 402 kts 241°
2026-04-24 15:58 55.57831 50.64320 5101 ft 403 kts 241°
2026-04-24 15:58 55.56591 50.59889 5093 ft 403 kts 241°
2026-04-24 15:58 55.55351 50.55464 5074 ft 403 kts 241°
2026-04-24 15:59 55.54072 50.51073 5101 ft 402 kts 240°
2026-04-24 15:59 55.52847 50.46651 5097 ft 398 kts 242°
2026-04-24 15:59 55.51654 50.42260 5086 ft 386 kts 242°
2026-04-24 15:59 55.50547 50.38263 5064 ft 353 kts 241°
2026-04-24 16:00 55.49535 50.34638 5056 ft 306 kts 240°
2026-04-24 16:00 55.48644 50.31490 5049 ft 268 kts 239°
2026-04-24 16:00 55.47827 50.28720 5050 ft 255 kts 238°
2026-04-24 16:00 55.46983 50.25899 5055 ft 258 kts 238°
2026-04-24 16:01 55.46175 50.23118 5074 ft 259 kts 239°
2026-04-24 16:01 55.45370 50.20278 5078 ft 260 kts 239°
2026-04-24 16:01 55.44570 50.17417 5078 ft 259 kts 239°
2026-04-24 16:01 55.43749 50.14592 5078 ft 257 kts 232°
2026-04-24 16:02 55.42673 50.12111 5098 ft 255 kts 225°
2026-04-24 16:02 55.41516 50.09729 5080 ft 255 kts 226°
2026-04-24 16:02 55.40395 50.07325 5073 ft 254 kts 227°
2026-04-24 16:02 55.39301 50.04846 5071 ft 256 kts 229°
2026-04-24 16:03 55.38188 50.02434 5054 ft 252 kts 214°
2026-04-24 16:03 55.36648 50.01325 5114 ft 245 kts 178°
2026-04-24 16:03 55.35039 50.02214 5173 ft 250 kts 141°
2026-04-24 16:03 55.34076 50.04774 5207 ft 262 kts 105°
2026-04-24 16:04 55.34190 50.08020 5248 ft 276 kts 69°
2026-04-24 16:04 55.35343 50.10794 5235 ft 286 kts 46°
2026-04-24 16:04 55.36976 50.12772 5212 ft 289 kts 17°
2026-04-24 16:04 55.38978 50.12962 5241 ft 292 kts 341°
2026-04-24 16:05 55.41596 50.08298 5268 ft 273 kts 272°
2026-04-24 16:05 55.41380 50.05071 5268 ft 260 kts 236°
2026-04-24 16:06 55.38748 50.01155 5194 ft 250 kts 208°
2026-04-24 16:06 55.37289 49.99503 5135 ft 250 kts 210°
2026-04-24 16:06 55.34467 49.95387 5111 ft 306 kts 219°
2026-04-24 16:07 55.32779 49.92724 5097 ft 328 kts 219°
2026-04-24 16:07 55.30976 49.89976 5074 ft 363 kts 218°
2026-04-24 16:07 55.27226 49.84148 4581 ft 365 kts 223°
2026-04-24 16:08 55.25479 49.80914 3781 ft 361 kts 223°
2026-04-24 16:08 55.21988 49.74876 3183 ft 353 kts 220°
2026-04-24 16:09 55.18453 49.68951 3061 ft 351 kts 220°
2026-04-24 16:09 55.16702 49.65985 3042 ft 350 kts 220°
2026-04-24 16:09 55.14942 49.62995 3041 ft 351 kts 221°
2026-04-24 16:09 55.13189 49.60019 3046 ft 352 kts 221°
2026-04-24 16:10 55.07942 49.51123 3056 ft 350 kts 221°
2026-04-24 16:11 55.04437 49.45206 3036 ft 351 kts 220°
2026-04-24 16:11 55.02706 49.42291 3035 ft 350 kts 220°
2026-04-24 16:11 55.00949 49.39338 3034 ft 350 kts 220°
2026-04-24 16:12 54.97443 49.33443 3040 ft 350 kts 220°
2026-04-24 16:12 54.95689 49.30506 3037 ft 349 kts 220°
2026-04-24 16:12 54.92176 49.24626 3043 ft 352 kts 220°
2026-04-24 16:13 54.90436 49.21713 3038 ft 340 kts 220°
2026-04-24 16:13 54.87003 49.16004 3056 ft 343 kts 220°
2026-04-24 16:14 54.83583 49.10314 3041 ft 343 kts 220°
2026-04-24 16:14 54.81863 49.07458 3030 ft 342 kts 220°
2026-04-24 16:14 54.78430 49.01807 3024 ft 325 kts 219°
2026-04-24 16:15 54.77370 49.00056 3015 ft 309 kts 220°
2026-04-24 16:15 54.74129 48.94597 2996 ft 251 kts 218°
2026-04-24 16:16 54.71597 48.90503 3004 ft 248 kts 218°
2026-04-24 16:16 54.70347 48.88473 3009 ft 246 kts 218°
2026-04-24 16:17 54.66598 48.82281 3032 ft 249 kts 218°
2026-04-24 16:17 54.64103 48.78190 3049 ft 247 kts 220°
2026-04-24 16:18 54.61602 48.74074 3020 ft 246 kts 219°
2026-04-24 16:18 54.59122 48.70048 3020 ft 246 kts 219°
2026-04-24 16:18 54.57868 48.68012 3028 ft 247 kts 220°
2026-04-24 16:19 54.55376 48.63937 3028 ft 246 kts 219°
2026-04-24 16:19 54.54135 48.61914 3016 ft 246 kts 219°
2026-04-24 16:20 54.51657 48.57898 3023 ft 247 kts 219°
2026-04-24 16:20 54.49287 48.54034 2983 ft 212 kts 219°
2026-04-24 16:20 54.48274 48.52379 2955 ft 190 kts 219°
2026-04-24 16:21 54.46444 48.49437 2950 ft 177 kts 217°
2026-04-24 16:21 54.45535 48.48024 2961 ft 177 kts 216°
2026-04-24 16:21 54.44609 48.46628 2976 ft 176 kts 217°
2026-04-24 16:22 54.43740 48.45179 3013 ft 173 kts 219°
2026-04-24 16:22 54.41970 48.42158 3036 ft 178 kts 218°
2026-04-24 16:22 54.41074 48.40701 3006 ft 178 kts 217°
2026-04-24 16:23 54.40170 48.39267 2992 ft 181 kts 217°
2026-04-24 16:23 54.39268 48.37843 2986 ft 173 kts 217°
2026-04-24 16:23 54.38382 48.36443 3006 ft 173 kts 217°
2026-04-24 16:24 54.36619 48.33650 2453 ft 176 kts 215°
2026-04-24 16:24 54.35691 48.32350 2181 ft 166 kts 212°
2026-04-24 16:24 54.34769 48.31190 2165 ft 164 kts 209°
2026-04-24 16:24 54.33810 48.30123 2844 ft 160 kts 206°
2026-04-24 16:25 54.32856 48.28931 2930 ft 182 kts 214°
2026-04-24 16:25 54.31805 48.27634 2159 ft 192 kts 209°
2026-04-24 16:25 54.30653 48.26379 1412 ft 197 kts 205°
2026-04-24 16:26 54.28274 48.23920 429 ft 189 kts 210°
2026-04-24 16:26 54.27253 48.22814 414 ft 133 kts 210°
2026-04-24 16:26 54.26543 48.22049 432 ft 40 kts 212°
2026-04-24 16:27 54.26402 48.22007 436 ft 10 kts 135°
2026-04-24 16:27 54.26383 48.22096 436 ft 8 kts 100°
2026-04-24 16:27 54.26389 48.22298 433 ft 19 kts 64°
2026-04-24 16:27 54.26505 48.22446 432 ft 35 kts 32°
2026-04-24 16:28 54.26852 48.22822 424 ft 64 kts 33°
2026-04-24 16:28 54.27213 48.23210 411 ft 59 kts 31°
2026-04-24 16:28 54.27664 48.23743 404 ft 14 kts 80°
2026-04-24 16:29 54.27638 48.23889 403 ft 20 kts 85°